• în România
  • Lista ţărilor
  • Pe 7 zile
  • Temperatura apei
  • Hartă satelitară
  • Meteo pe hartă
  • Widget-uri
  • user-avatar
    Intrare

    Meteo pe oră la Middlesbrough

    Astăzi, 15 August, Miercuri

    Timp Temperatura Precipitaţii Vânt Presiune Umiditate
    00:00 +19°C° 0 mm 5 m/s 759 mmHg 85%
    01:00 +17°C° 0,1 mm 5 m/s 758 mmHg 86%
    02:00 +17°C° 0,1 mm 5 m/s 758 mmHg 86%
    03:00 +17°C° 0,1 mm 5 m/s 758 mmHg 86%
    04:00 +17°C° 0 mm 5 m/s 758 mmHg 86%
    05:00 +17°C° 0 mm 5 m/s 758 mmHg 86%
    06:00 +17°C° 0 mm 5 m/s 758 mmHg 86%
    07:00 +19°C° 0 mm 6 m/s 758 mmHg 83%
    08:00 +20°C° 0 mm 6 m/s 758 mmHg 79%
    09:00 +21°C° 0 mm 7 m/s 758 mmHg 76%
    10:00 +21°C° 0 mm 7 m/s 757 mmHg 74%
    11:00 +22°C° 0 mm 7 m/s 757 mmHg 72%
    12:00 +23°C° 0 mm 6 m/s 757 mmHg 69%
    13:00 +23°C° 0 mm 7 m/s 757 mmHg 70%
    14:00 +23°C° 0 mm 7 m/s 756 mmHg 71%
    15:00 +22°C° 0 mm 8 m/s 756 mmHg 73%
    16:00 +22°C° 0,1 mm 8 m/s 756 mmHg 76%
    17:00 +21°C° 0,1 mm 7 m/s 756 mmHg 79%
    18:00 +20°C° 0,1 mm 7 m/s 755 mmHg 81%
    19:00 +20°C° 0,4 mm 7 m/s 755 mmHg 83%
    20:00 +20°C° 0,4 mm 6 m/s 755 mmHg 85%
    21:00 +19°C° 0,4 mm 6 m/s 755 mmHg 87%
    22:00 +19°C° 0,2 mm 6 m/s 755 mmHg 87%
    23:00 +19°C° 0,2 mm 5 m/s 755 mmHg 88%

    Mâine, 16 August, Joi

    Timp Temperatura Precipitaţii Vânt Presiune Umiditate
    00:00 +19°C° 0,2 mm 5 m/s 755 mmHg 88%
    01:00 +17°C° 0,5 mm 5 m/s 754 mmHg 88%
    02:00 +17°C° 0,5 mm 5 m/s 754 mmHg 88%
    03:00 +17°C° 0,5 mm 5 m/s 754 mmHg 88%
    04:00 +16°C° 0,4 mm 5 m/s 754 mmHg 87%
    05:00 +17°C° 0,4 mm 4 m/s 754 mmHg 87%
    06:00 +15°C° 0,4 mm 4 m/s 754 mmHg 86%
    07:00 +15°C° 0,1 mm 5 m/s 754 mmHg 82%
    08:00 +15°C° 0,1 mm 5 m/s 754 mmHg 78%
    09:00 +15°C° 0,1 mm 5 m/s 755 mmHg 74%
    10:00 +16°C° 0 mm 5 m/s 755 mmHg 71%
    11:00 +16°C° 0 mm 6 m/s 755 mmHg 69%
    12:00 +17°C° 0 mm 6 m/s 755 mmHg 66%
    13:00 +17°C° 0,2 mm 6 m/s 755 mmHg 65%
    14:00 +17°C° 0,2 mm 7 m/s 755 mmHg 65%
    15:00 +18°C° 0,2 mm 7 m/s 755 mmHg 64%
    16:00 +17°C° 0,1 mm 7 m/s 756 mmHg 66%
    17:00 +17°C° 0,1 mm 6 m/s 756 mmHg 69%
    18:00 +16°C° 0,1 mm 6 m/s 756 mmHg 71%
    19:00 +15°C° 0 mm 6 m/s 756 mmHg 75%
    20:00 +14°C° 0 mm 5 m/s 757 mmHg 78%
    21:00 +13°C° 0 mm 5 m/s 757 mmHg 82%
    22:00 +13°C° 0 mm 5 m/s 758 mmHg 83%
    23:00 +13°C° 0 mm 5 m/s 758 mmHg 85%

    Poimâine, 17 August, Vineri

    Timp Temperatura Precipitaţii Vânt Presiune Umiditate
    00:00 +12°C° 0 mm 4 m/s 758 mmHg 87%
    01:00 +12°C° 0 mm 4 m/s 759 mmHg 88%
    02:00 +12°C° 0 mm 4 m/s 759 mmHg 88%
    03:00 +11°C° 0 mm 4 m/s 759 mmHg 89%
    04:00 +11°C° 0 mm 4 m/s 759 mmHg 88%
    05:00 +12°C° 0 mm 4 m/s 759 mmHg 88%
    06:00 +12°C° 0 mm 4 m/s 760 mmHg 87%
    07:00 +13°C° 0 mm 4 m/s 760 mmHg 81%
    08:00 +14°C° 0 mm 5 m/s 760 mmHg 75%
    09:00 +16°C° 0 mm 5 m/s 760 mmHg 69%
    10:00 +16°C° 0 mm 5 m/s 760 mmHg 67%
    11:00 +17°C° 0 mm 6 m/s 760 mmHg 64%
    12:00 +17°C° 0 mm 6 m/s 760 mmHg 62%
    13:00 +17°C° 0 mm 6 m/s 760 mmHg 63%
    14:00 +17°C° 0 mm 6 m/s 760 mmHg 64%
    15:00 +17°C° 0 mm 6 m/s 760 mmHg 65%
    16:00 +17°C° 0 mm 6 m/s 760 mmHg 69%
    17:00 +16°C° 0 mm 6 m/s 760 mmHg 73%
    18:00 +16°C° 0 mm 6 m/s 760 mmHg 76%
    19:00 +16°C° 0 mm 6 m/s 759 mmHg 78%
    20:00 +16°C° 0 mm 6 m/s 759 mmHg 79%
    21:00 +16°C° 0 mm 7 m/s 759 mmHg 81%
    22:00 +16°C° 0 mm 7 m/s 759 mmHg 82%
    23:00 +16°C° 0 mm 7 m/s 759 mmHg 82%

    18 August, Sâmbătă

    Timp Temperatura Precipitaţii Vânt Presiune Umiditate
    00:00 +16°C° 0 mm 7 m/s 759 mmHg 83%
    01:00 +16°C° 0 mm 7 m/s 758 mmHg 84%
    02:00 +16°C° 0 mm 7 m/s 758 mmHg 85%
    03:00 +17°C° 0 mm 6 m/s 758 mmHg 86%
    04:00 +17°C° 0 mm 6 m/s 758 mmHg 86%
    05:00 +17°C° 0 mm 6 m/s 759 mmHg 85%
    06:00 +17°C° 0 mm 5 m/s 759 mmHg 85%
    07:00 +17°C° 0 mm 6 m/s 759 mmHg 82%
    08:00 +19°C° 0 mm 6 m/s 759 mmHg 79%
    09:00 +20°C° 0 mm 7 m/s 760 mmHg 76%
    10:00 +20°C° 0 mm 7 m/s 760 mmHg 73%
    11:00 +20°C° 0 mm 7 m/s 760 mmHg 71%
    12:00 +21°C° 0 mm 7 m/s 760 mmHg 68%
    13:00 +21°C° 0 mm 6 m/s 760 mmHg 69%
    14:00 +21°C° 0 mm 6 m/s 761 mmHg 70%
    15:00 +21°C° 0 mm 6 m/s 761 mmHg 71%
    16:00 +20°C° 0 mm 5 m/s 761 mmHg 74%
    17:00 +20°C° 0 mm 5 m/s 761 mmHg 77%
    18:00 +19°C° 0 mm 4 m/s 762 mmHg 80%
    19:00 +18°C° 0 mm 3 m/s 762 mmHg 83%
    20:00 +18°C° 0 mm 2 m/s 762 mmHg 86%
    21:00 +18°C° 0 mm 1 m/s 762 mmHg 89%
    22:00 +18°C° 0,1 mm 1 m/s 762 mmHg 89%
    23:00 +18°C° 0,1 mm 1 m/s 762 mmHg 89%

    19 August, Duminică

    Timp Temperatura Precipitaţii Vânt Presiune Umiditate
    00:00 +17°C° 0,1 mm 2 m/s 762 mmHg 89%
    01:00 +17°C° 0,3 mm 2 m/s 762 mmHg 89%
    02:00 +17°C° 0,3 mm 2 m/s 761 mmHg 90%
    03:00 +17°C° 0,3 mm 3 m/s 761 mmHg 91%
    04:00 +17°C° 0,2 mm 3 m/s 760 mmHg 91%
    05:00 +17°C° 0,2 mm 4 m/s 760 mmHg 91%
    06:00 +16°C° 0,2 mm 5 m/s 759 mmHg 91%
    07:00 +17°C° 0,6 mm 5 m/s 759 mmHg 91%
    08:00 +17°C° 0,6 mm 6 m/s 758 mmHg 91%
    09:00 +19°C° 0,6 mm 6 m/s 758 mmHg 91%
    10:00 +19°C° 0,2 mm 6 m/s 758 mmHg 90%
    11:00 +19°C° 0,2 mm 6 m/s 758 mmHg 89%
    12:00 +20°C° 0,2 mm 6 m/s 758 mmHg 88%
    13:00 +20°C° 0 mm 5 m/s 758 mmHg 85%
    14:00 +21°C° 0 mm 5 m/s 758 mmHg 83%
    15:00 +22°C° 0 mm 5 m/s 758 mmHg 81%
    16:00 +21°C° 0,1 mm 5 m/s 758 mmHg 82%
    17:00 +21°C° 0,1 mm 5 m/s 758 mmHg 82%
    18:00 +21°C° 0,1 mm 5 m/s 758 mmHg 83%
    19:00 +20°C° 0 mm 5 m/s 759 mmHg 86%
    20:00 +19°C° 0 mm 4 m/s 759 mmHg 88%
    21:00 +19°C° 0 mm 4 m/s 760 mmHg 91%
    22:00 +18°C° 0 mm 4 m/s 760 mmHg 91%
    23:00 +18°C° 0 mm 4 m/s 760 mmHg 92%

    20 August, Luni

    Timp Temperatura Precipitaţii Vânt Presiune Umiditate
    00:00 +18°C° 0 mm 4 m/s 760 mmHg 93%
    01:00 +18°C° 0 mm 4 m/s 760 mmHg 93%
    02:00 +18°C° 0 mm 4 m/s 760 mmHg 93%
    03:00 +18°C° 0 mm 4 m/s 760 mmHg 93%
    04:00 +18°C° 0 mm 4 m/s 760 mmHg 92%
    05:00 +17°C° 0 mm 5 m/s 760 mmHg 90%
    06:00 +19°C° 0 mm 5 m/s 760 mmHg 88%
    07:00 +19°C° 0 mm 5 m/s 760 mmHg 85%
    08:00 +20°C° 0 mm 6 m/s 761 mmHg 82%
    09:00 +20°C° 0 mm 6 m/s 761 mmHg 79%
    10:00 +20°C° 0 mm 6 m/s 761 mmHg 76%
    11:00 +21°C° 0 mm 6 m/s 761 mmHg 74%
    12:00 +21°C° 0 mm 6 m/s 762 mmHg 72%
    13:00 +21°C° 0 mm 6 m/s 762 mmHg 71%
    14:00 +21°C° 0 mm 6 m/s 762 mmHg 71%
    15:00 +21°C° 0 mm 6 m/s 762 mmHg 70%
    16:00 +21°C° 0 mm 6 m/s 762 mmHg 71%
    17:00 +20°C° 0 mm 6 m/s 762 mmHg 73%
    18:00 +20°C° 0 mm 5 m/s 763 mmHg 74%
    19:00 +17°C° 0 mm 5 m/s 763 mmHg 78%
    20:00 +17°C° 0 mm 4 m/s 763 mmHg 81%
    21:00 +15°C° 0 mm 4 m/s 764 mmHg 85%
    22:00 +16°C° 0 mm 3 m/s 764 mmHg 86%
    23:00 +14°C° 0 mm 3 m/s 764 mmHg 87%
    Arată mai mult